Hourly Data Report for May 14, 2003

SHERBROOKE A
QUEBEC

45°26'00.000" N
71°41'00.000" W
241.40 m
7028124
71610
YSC

Download Data

Hourly Data (May 2003)
Hourly Data Report for May 14, 2003
TIME
LST
Temp Definition
°C
Dew Point Definition
°C
Rel Hum Definition
%
Precip. Amount Definition
mm

Wind Dir Definition
10's deg

Wind Spd Definition
km/h
Visibility Definition
km
Stn Press Definition
kPa
Hmdx Definition


Wind Chill Definition


Weather Definition


00:00 4.5 3.5 93     0 15.0 97.62     Rain
01:00 4.4 3.7 95   27 4 15.0 97.62     Rain
02:00 4.4 3.7 95   29 6 15.0 97.64     Rain
03:00 4.3 3.5 95     0 15.0 97.66     Rain
04:00 4.0 3.0 93     0 15.0 97.70     Drizzle
05:00 4.4 3.7 95   21 4 15.0 97.77     Drizzle
06:00 4.9 3.9 93     0 15.0 97.83     Drizzle
07:00 5.3 4.2 93   26 4 16.1 97.87     Drizzle
08:00 5.7 4.5 92   23 6 4.8 97.92     Drizzle,Fog
09:00 6.1 5.3 95   23 6 4.8 97.98     Drizzle,Fog
10:00 6.7 5.6 93   26 7 16.1 98.03     Drizzle
11:00 7.2 5.9 91   22 7 24.1 98.08     Cloudy
12:00 9.7 6.9 83   27 7 24.1 98.10     Rain Showers
13:00 10.6 6.0 73   28 9 24.1 98.12     Rain Showers
14:00 11.3 6.1 70   31 6 24.1 98.15     Cloudy
15:00 11.2 5.9 70   30 15 24.1 98.18     Cloudy
16:00 11.4 5.9 69   36 4 24.1 98.25     Cloudy
17:00 11.5 6.6 72   10 6 15.0 98.32      
18:00
19:00 8.7 7.6 93   6 6 15.0 98.54     Rain
20:00 8.5 7.8 95   8 4 11.3 98.63     Rain
21:00 8.0 7.4 96   13 6 15.0 98.68      
22:00 7.4 7.0 97     0 4.0 98.72      
23:00 5.3 4.7 96     0 0.2 98.76      

Notes on Data Quality.

Legend

  • E = Estimated
  • M = Missing
  • NA = Not Available*
  • [empty] = Indicates an unobserved value
Date modified: